DW5766 Farmingdale NY US current weather conditions

sailwx.info

Wind from 273

Air temperature 20.6° C
Dewpoint 17.6° C

Last reported at 2019-Sep-16 13:47 UTC.
Time now 2019-Sep-16 15:03 UTC

Location: N 40°44' W 073°26'.
View on Google Maps.

See reports from other nearby stations

  
Tides and Currents Weather Stations Pressure Air Temp Water Temp Dewpoint Dewpoint Depression Visibility Wind Speed Wind Dir Waves Ship Positions
date/time (UTC)wind fromknots sea level pressurealtimeterstation pressurevisibilityair tempwater tempwave heightnotes
2019-Sep-16 13:47 273 20.6
2019-Sep-16 13:32 273 20.6
2019-Sep-16 13:16 273 20.0
2019-Sep-16 13:02 299 20.0
2019-Sep-16 12:46 298 20.0
2019-Sep-16 12:31 357 20.0
2019-Sep-16 12:02 321 20.0
2019-Sep-16 11:46 295 19.4
2019-Sep-16 11:31 288 19.4
2019-Sep-16 11:16 307 19.4
2019-Sep-16 11:02 308 19.4
2019-Sep-16 10:47 290 19.4
2019-Sep-16 10:31 283 19.4
2019-Sep-16 10:17 284 19.4
2019-Sep-16 10:01 284 19.4
2019-Sep-16 09:45 284 19.4
2019-Sep-16 09:31 264 18.9
2019-Sep-16 09:15 264 18.9
2019-Sep-16 09:00 264 18.9
2019-Sep-16 08:46 264 18.9
2019-Sep-16 08:31 264 18.9
2019-Sep-16 08:15 264 18.9
2019-Sep-16 08:00 264 18.9
2019-Sep-16 07:45 262 18.3
2019-Sep-16 07:31 262 18.3
2019-Sep-16 07:15 263 18.3
2019-Sep-16 07:01 263 18.3
2019-Sep-16 06:45 263 18.3
2019-Sep-16 06:30 262 18.3
2019-Sep-16 06:15 263 18.3
2019-Sep-16 06:00 263 18.3
2019-Sep-16 05:45 262 18.3
2019-Sep-16 05:30 262 18.3
2019-Sep-16 05:15 263 18.3
2019-Sep-16 05:00 263 18.3
2019-Sep-16 04:45 262 18.3
2019-Sep-16 04:30 264 18.3
2019-Sep-16 04:15 263 18.9
2019-Sep-16 04:00 262 18.9
2019-Sep-16 03:45 262 18.3
2019-Sep-16 03:30 263 18.3
2019-Sep-16 03:15 263 18.3
2019-Sep-16 03:00 263 18.9
2019-Sep-16 02:45 262 18.9
2019-Sep-16 02:32 263 18.9
2019-Sep-16 02:16 263 18.9
2019-Sep-16 02:02 262 19.4
2019-Sep-16 01:46 263 19.4
2019-Sep-16 01:32 262 19.4
2019-Sep-16 01:17 262 20.0
2019-Sep-16 01:01 262 20.6
2019-Sep-16 00:46 262 20.6
2019-Sep-16 00:32 262 21.1
2019-Sep-16 00:17 264 21.1
2019-Sep-16 00:01 264 21.1
2019-Sep-15 23:46 248 21.1
2019-Sep-15 23:32 274 21.7
2019-Sep-15 23:16 264 22.2
2019-Sep-15 23:01 238 22.8
2019-Sep-15 22:47 250 0 gusting 5 23.3
2019-Sep-15 22:31 144 1 gusting 5 24.4
2019-Sep-15 22:17 254 0 gusting 4 24.4
2019-Sep-15 22:01 103 1 gusting 6 25.0
2019-Sep-15 21:46 252 1 gusting 5 25.0
2019-Sep-15 21:31 155 1 gusting 5 25.6
2019-Sep-15 21:16 157 0 gusting 3 25.6
2019-Sep-15 21:01 264 0 gusting 4 26.1
2019-Sep-15 20:46 259 1 gusting 6 25.6
2019-Sep-15 20:31 271 2 gusting 5 26.1
2019-Sep-15 20:16 193 3 gusting 6 26.7
2019-Sep-15 20:01 235 2 gusting 6 26.1
2019-Sep-15 19:46 204 2 gusting 6 26.1
2019-Sep-15 19:32 163 4 gusting 7 25.6
2019-Sep-15 19:15 167 3 gusting 7 26.1
2019-Sep-15 19:01 175 2 gusting 8 26.1
2019-Sep-15 18:46 257 2 gusting 7 26.1
2019-Sep-15 18:30 167 3 gusting 8 26.1
2019-Sep-15 18:16 268 1 gusting 5 26.1
2019-Sep-15 18:00 214 2 gusting 7 26.1
2019-Sep-15 17:45 263 1 gusting 6 26.1
2019-Sep-15 17:30 257 2 gusting 7 26.1
2019-Sep-15 17:15 218 0 gusting 3 25.6
2019-Sep-15 17:00 268 1 gusting 5 25.6
2019-Sep-15 16:45 309 2 gusting 5 25.6
2019-Sep-15 16:30 258 1 gusting 4 26.1
2019-Sep-15 16:15 342 0 gusting 3 25.6
2019-Sep-15 16:00 290 1 gusting 4 25.0
2019-Sep-15 15:45 280 1 gusting 4 25.0
2019-Sep-15 15:30 347 24.4
2019-Sep-15 15:15 313 0 gusting 5 23.9
2019-Sep-15 15:02 345 0 gusting 4 23.9
2019-Sep-15 14:46 355 24.4
2019-Sep-15 14:32 293 0 gusting 4 23.9
2019-Sep-15 14:18 301 1 gusting 5 23.9
2019-Sep-15 14:01 293 2 gusting 7 23.3
2019-Sep-15 13:46 282 0 gusting 5 23.3
2019-Sep-15 13:32 308 1 gusting 4 22.8
2019-Sep-15 13:16 308 1 gusting 5 22.8
2019-Sep-15 13:00 303 0 gusting 4 22.2
2019-Sep-15 12:46 292 22.2
2019-Sep-15 12:31 327 0 gusting 3 21.7
2019-Sep-15 12:16 311 21.1
2019-Sep-15 12:01 286 20.6
2019-Sep-15 11:46 286 20.0
2019-Sep-15 11:30 259 20.0
2019-Sep-15 11:16 260 19.4
2019-Sep-15 11:01 259 19.4
2019-Sep-15 10:46 259 19.4
2019-Sep-15 10:31 259 19.4
2019-Sep-15 10:16 260 20.0
2019-Sep-15 10:01 260 20.0
2019-Sep-15 09:46 259 20.0
2019-Sep-15 09:31 259 20.0
2019-Sep-15 09:16 260 20.0
2019-Sep-15 09:00 260 20.6
2019-Sep-15 08:45 260 20.6
2019-Sep-15 08:30 259 20.6
2019-Sep-15 08:15 259 20.6
2019-Sep-15 08:00 259 20.6
2019-Sep-15 07:45 260 20.6
2019-Sep-15 07:30 260 21.1
2019-Sep-15 07:15 257 21.1
2019-Sep-15 07:00 262 0 gusting 1 21.1
2019-Sep-15 06:45 267 21.1
2019-Sep-15 06:30 248 21.1
2019-Sep-15 06:15 261 0 gusting 2 21.1
2019-Sep-15 06:00 289 21.1
2019-Sep-15 05:45 264 21.7
2019-Sep-15 05:30 266 21.7
2019-Sep-15 05:15 266 21.7
2019-Sep-15 05:00 267 21.7
2019-Sep-15 04:46 258 21.7
2019-Sep-15 04:33 267 21.7
2019-Sep-15 04:17 264 21.7
2019-Sep-15 04:01 257 0 gusting 5 21.7
2019-Sep-15 03:47 257 0 gusting 4 21.7
2019-Sep-15 03:31 259 2 gusting 6 21.7
2019-Sep-15 03:17 273 1 gusting 6 21.7
2019-Sep-15 03:01 271 1 gusting 6 21.7
2019-Sep-15 02:46 268 2 gusting 5 21.7
2019-Sep-15 02:32 246 1 gusting 9 21.7
2019-Sep-15 02:16 260 0 gusting 8 21.7
2019-Sep-15 02:02 229 2 gusting 9 21.7
2019-Sep-15 01:47 157 1 gusting 8 21.7
2019-Sep-15 01:30 260 2 gusting 7 21.7
2019-Sep-15 01:16 264 0 gusting 5 21.7
2019-Sep-15 01:01 258 1 gusting 8 21.7
2019-Sep-15 00:47 235 3 gusting 8 21.7
2019-Sep-15 00:31 271 1 gusting 7 21.7
2019-Sep-15 00:16 262 3 gusting 10 21.7
2019-Sep-15 00:01 231 1 gusting 7 21.7
2019-Sep-14 23:47 280 0 gusting 9 21.7
2019-Sep-14 23:31 027 2 gusting 6 21.7
2019-Sep-14 23:16 261 0 gusting 8 21.7
2019-Sep-14 23:01 202 3 gusting 9 21.7
2019-Sep-14 22:46 172 3 gusting 7 21.7
2019-Sep-14 22:31 207 2 gusting 9 22.2
2019-Sep-14 22:15 292 1 gusting 7 22.2
2019-Sep-14 22:01 170 2 gusting 8 22.2
2019-Sep-14 21:46 157 3 gusting 10 22.2
2019-Sep-14 21:31 252 3 gusting 10 22.2
2019-Sep-14 21:15 138 5 gusting 11 22.2
2019-Sep-14 21:01 152 5 gusting 12 22.2
2019-Sep-14 20:46 229 3 gusting 8 22.8
2019-Sep-14 20:30 149 1 gusting 10 22.8
2019-Sep-14 20:15 266 3 gusting 11 22.2
2019-Sep-14 20:01 186 4 gusting 13 22.8
2019-Sep-14 19:45 238 5 gusting 9 22.8
2019-Sep-14 19:31 126 4 gusting 13 22.8
2019-Sep-14 19:15 149 3 gusting 12 23.3
2019-Sep-14 19:01 208 3 gusting 13 23.3
2019-Sep-14 18:45 162 5 gusting 13 23.3
2019-Sep-14 18:30 060 5 gusting 13 23.3
2019-Sep-14 18:15 182 6 gusting 14 23.3
2019-Sep-14 18:00 207 6 gusting 10 23.9
2019-Sep-14 17:45 167 4 gusting 13 23.9
2019-Sep-14 17:30 134 5 gusting 13 23.3
2019-Sep-14 17:18 147 2 gusting 9 23.3
2019-Sep-14 17:01 103 6 gusting 13 22.8
2019-Sep-14 16:46 157 4 gusting 11 22.8
2019-Sep-14 16:32 136 5 gusting 11 22.8
2019-Sep-14 16:16 180 6 gusting 13 22.8
2019-Sep-14 16:01 245 1 gusting 9 23.3
2019-Sep-14 15:47 176 3 gusting 13 23.3
2019-Sep-14 15:31 226 4 gusting 10 22.8
2019-Sep-14 15:16 183 6 gusting 10 23.3
2019-Sep-14 15:02 218 3 gusting 10 23.3